Eastover, SC

11:00 PM EST on December 11, 2019 (GMT -0500)
McEntire Angs

Weather History for KMMT - October, 2019

Change the Weather History Date:

Sunday, October 20, 2019

  Actual Average Record
Temperature  
Mean Temperature 68 °F -  
Max Temperature 77 °F 71 °F 86 °F (2005)
Min Temperature 57 °F 49 °F 33 °F (2015)
Cooling Degree Days 3    
Growing Degree Days 18 (Base 50)    
Moisture  
Dew Point 61 °F    
Average Humidity 89    
Maximum Humidity 100    
Minimum Humidity 54    
Precipitation  
Precipitation 0.00 in - - ()
Sea Level Pressure  
Sea Level Pressure 29.86 in    
Wind  
Wind Speed 6 mph ()    
Max Wind Speed 12 mph    
Max Gust Speed -    
Visibility 9.0 miles    
Events Rain    
Averages and records for this station are not official NWS values.
T = Trace of Precipitation, MM = Missing Value Source: Averaged Metar Reports

Daily Weather History Graph

Daily Weather History Graph

Search for Another Location

Airport or City:

Astronomy

Oct. 20, 2019 Rise Set
Actual Time 7:32 AM EDT 6:43 PM EDT
Civil Twilight 7:06 AM EDT 7:08 PM EDT
Nautical Twilight 6:37 AM EDT 7:37 PM EDT
Astronomical Twilight 6:08 AM EDT 8:06 PM EDT
Moon No Moon Rise 1:47 PM EDT (10/20)
Length of Visible Light 12h 02m
Length of Day
11h 11m
Waning Gibbous, 59% of the Moon is Illuminated
Oct 20
Waning Gibbous
Oct 21
Last Quarter
Oct 27
New
Nov 4
First Quarter
Nov 12
Full

Hourly Weather History & Observations

Time (EDT) Temp. Dew Point Humidity Pressure Visibility Wind Dir Wind Speed Gust Speed Precip Events Conditions
12:06 AM 68.0 °F 68.0 °F 100% 29.69 in 7.0 mi ENE 9.2 mph - N/A Rain Light Rain
12:26 AM 68.0 °F 68.0 °F 100% 29.68 in 8.0 mi Calm Calm - N/A Rain Light Rain
12:56 AM 69.8 °F 69.8 °F 100% 29.67 in 8.0 mi SE 6.9 mph - N/A Rain Light Rain
1:56 AM - - N/A% - - North - - N/A   Unknown
2:56 AM - - N/A% - - North - - N/A   Unknown
3:56 AM - - N/A% - - North - - N/A   Unknown
4:56 AM - - N/A% - - North - - N/A   Unknown
5:56 AM - - N/A% - - North - - N/A   Unknown
6:56 AM - - N/A% - - North - - N/A   Unknown
7:56 AM - - N/A% - - North - - N/A   Unknown
8:56 AM - - N/A% - - North - - N/A   Unknown
9:56 AM - - N/A% - - North - - N/A   Unknown
10:48 AM 59.0 °F 59.0 °F 100% 29.83 in 10.0 mi WNW 9.2 mph - N/A   Overcast
10:56 AM 59.0 °F 59.0 °F 100% 29.83 in 10.0 mi WNW 9.2 mph - N/A   Overcast
11:56 AM 59.7 °F 59.4 °F 99% 29.85 in 10.0 mi West 10.4 mph - N/A   Overcast
12:36 PM 60.8 °F 60.8 °F 100% 29.86 in 10.0 mi WNW 10.4 mph - N/A   Overcast
12:56 PM 61.9 °F 60.1 °F 94% 29.85 in 10.0 mi WNW 10.4 mph - N/A   Overcast
1:06 PM 62.6 °F 60.8 °F 94% 29.85 in 10.0 mi NW 9.2 mph - N/A   Overcast
1:16 PM 64.4 °F 60.8 °F 88% 29.84 in 10.0 mi WNW 8.1 mph - N/A   Overcast
1:26 PM 66.2 °F 60.8 °F 83% 29.84 in 10.0 mi West 8.1 mph - N/A   Overcast
1:56 PM 69.3 °F 60.3 °F 73% 29.83 in 10.0 mi WNW 9.2 mph - N/A   Partly Cloudy
2:56 PM 74.5 °F 60.1 °F 61% 29.84 in 10.0 mi WNW 11.5 mph - N/A   Mostly Cloudy
3:56 PM 76.5 °F 59.5 °F 56% 29.85 in 10.0 mi West 8.1 mph - N/A   Clear
4:56 PM 77.4 °F 59.4 °F 54% 29.86 in 10.0 mi WNW 10.4 mph - N/A   Clear
5:56 PM 75.9 °F 59.5 °F 57% 29.87 in 10.0 mi NW 8.1 mph - N/A   Clear
6:56 PM 71.1 °F 61.2 °F 71% 29.89 in 10.0 mi Calm Calm - N/A   Clear
7:56 PM 64.6 °F 64.0 °F 98% 29.91 in 10.0 mi Calm Calm - N/A   Clear
8:56 PM 62.2 °F 62.2 °F 100% 29.92 in 10.0 mi Calm Calm - N/A   Clear
9:56 PM 59.5 °F 59.5 °F 100% 29.94 in 9.0 mi Calm Calm - N/A   Clear
10:26 PM 59.0 °F 59.0 °F 100% 29.96 in 1.4 mi Calm Calm - N/A   Clear
10:41 PM 59.0 °F 59.0 °F 100% 29.97 in 5.0 mi Calm Calm - N/A   Clear
10:56 PM 59.0 °F 59.0 °F 100% 29.97 in 8.0 mi Calm Calm - N/A   Clear
11:56 PM 57.7 °F 57.7 °F 100% 29.99 in 10.0 mi Calm Calm - N/A   Clear